DECAYED

OBJECT F, 58825 (Decayed)

Orbit data source: Space-Track

You're viewing an Uncataloged Satellite

Recently launched and/or uncataloged satellites may have evolving metadata. Metadata may include but not limited to: Owner, Maufacturer, Bus, Motor, and Mission.

OBJECT F, 58825 was a Chinese satellite in LEO that was launched on Tue, 23 Jan 2024 UTC via a LIJIAN-1 launch vehicle from the Jiuquan Satellite Launch Center, China (JSC). Unknown objects in Earth's orbit typically refer to objects detected orbiting the Earth but have not yet been identified or cataloged. These objects could be anything from previously untracked satellites, spent rocket stages, debris from satellite collisions, or even natural meteoroids temporarily captured by Earth's gravity. This object's orbit decayed before it could be identified.

Not visible in the next 10 days
Identifier
58825, 2024-016F
Orbit
Decayed
Country
Flag of CNCN / PRC
Related business
None
Manufacturer
Unknown
Mission
Decayed Commercial Imaging
Bus & Motor
Unknown
Mass
Unknown
Launch date (UTC)
2024-01-23 (2 years ago)
Launch vehicle
LIJIAN-1
Launch site
Jiuquan Satellite Launch Center, China (JSC)
Object type
Unknown
Shape & HBR
Box + 3 Pan, 3.0 m
Radar Cross Section
3.533 m², Medium (>0.1 m² and < 1m²)

Expand to show TLE details & history
Last TLE update: 7 months ago

TLE from 7 months ago
0 OBJECT F
1 58825U 24016F   25320.85257990  .17035075  26217-5  86603-3 0  9995
2 58825  97.4436  52.7321 0010359 252.5709 107.4459 16.41836546101669
Epoch: 2025-11-16T20:27Z
TLE epoch observation values (Epoch: 2025-11-16T20:27:42.903Z)
Latitude
-0.00002°
Longitude
49.64192°
Altitude
166.212 km
Speed
7.805 km/s
True Right ascension
03h 30m 55s
True Declination
0° 00' 00"
Sunlit
Object was in full shadow at epoch
Visualization orbit readout
Latitude
Unknown
Longitude
Unknown
Altitude
Unknown
Speed
Unknown
Apparent Right ascension
Unknown
Apparent Declination
Unknown
Sunlit
N/A
Visualization observer readout
Local Sidereal Time
21:29:16
Azimuth
Unknown
Elevation
Unknown
Doppler factor
Unknown
Orbital elements
Apogee altitude
164.499 km
Perigee altitude
150.958 km
Semi-major axis
6,535.866 km
Eccentricity
0.00104
Inclination
97.4436°
RAAN
52.7321°
Arg. of periapsis
252.5709°
True anomaly
107.5591°
Mean anomaly
107.4459°
Eccentric anomaly
107.5025°
Mean motion
4.1076 °/min
Orbital period
87.64 mins
BSTAR
0.00086603
Loading maneuver chart data...
Computing Atmospheric mass density...
Loading historical data...
Loading historical data...
Loading historical data...
Loading historical data...
Loading historical data...
Loading historical data...
Loading historical data...
Other satellites on launch #16 in the year 2024 (2024-01-23 UTC)

Documentation

Showing up to 5 results
|